Temp
6 7 9 10 10 12 12 14 14 14 14 13 14 14 12 13 13 13 13 13 13 12 12 11 11 10 10 11 11 11 11 10 10 10 10 10 10 10 9 9 9 9 9 9
6 8 9 9 10 10 11 11 13 14 13 13 14 14 14 12 13 13 13 13 13 12 12 11 11 11 11 11 11 11 11 11 11 11 10 10 10 10 9 9 9 9 9 9
8 9 9 9 9 8 10 11 13 14 13 12 13 14 14 13 12 11 13 12 12 13 13 12 11 11 11 11 11 11 11 11 11 11 10 10 10 10 10 10 9 9 10 9
7 8 8 8 8 9 10 11 11 12 12 14 13 16 14 14 12 11 13 13 13 12 12 12 12 12 12 11 11 11 11 11 11 11 11 11 10 10 10 10 10 9 10 10
8 8 8 8 9 9 10 11 10 11 11 13 14 14 16 15 13 12 13 12 13 13 12 12 13 12 12 11 11 11 11 11 11 11 11 11 11 10 10 10 10 10 10 10
7 8 8 8 9 9 9 9 10 10 11 13 14 14 16 15 14 13 12 12 14 14 13 13 12 12 12 11 11 11 11 11 11 11 11 11 11 11 11 10 10 10 10 10
7 8 7 8 9 9 8 9 12 13 13 15 14 14 15 16 15 14 14 13 14 14 14 14 13 13 13 12 12 11 11 11 11 11 11 11 11 11 11 10 10 10 10 11
9 9 8 8 9 10 9 10 13 13 16 16 14 15 14 14 14 14 14 14 13 13 14 14 14 13 13 13 13 12 12 11 11 11 12 12 11 11 11 11 11 11 11 11
7 8 7 7 8 9 10 9 11 14 15 15 16 14 14 14 14 13 13 14 13 13 14 14 15 14 13 13 13 13 13 12 11 12 11 12 12 12 12 11 11 11 11 11
4 5 6 6 7 7 8 10 10 11 13 14 16 16 15 14 13 14 14 14 14 14 13 14 15 15 14 13 13 12 13 13 12 12 12 12 12 12 12 12 11 11 12 11
1 3 6 5 6 8 8 8 10 11 12 15 15 16 15 15 14 14 14 14 15 15 14 14 15 15 15 14 13 13 13 13 13 12 12 12 13 12 12 12 12 12 12 12
1 2 4 6 6 6 7 8 9 11 12 12 13 16 14 14 14 14 14 15 15 14 14 14 15 15 15 15 14 13 13 13 14 14 14 13 13 13 12 12 12 12 12 12
-0 2 3 5 5 5 6 7 7 10 11 12 13 13 14 13 13 13 13 13 13 15 14 13 14 15 15 15 15 14 13 13 14 14 14 14 14 13 13 12 12 12 12 12
-2 0 1 5 4 3 3 4 5 7 9 11 12 13 13 13 13 12 12 12 13 14 15 15 15 15 15 15 15 15 14 13 13 14 14 14 14 14 13 13 12 12 12 12
-3 -1 0 1 1 1 1 2 2 4 6 9 11 11 12 12 11 11 12 12 13 14 14 15 15 15 16 16 15 15 15 14 13 13 14 14 13 13 13 13 13 13 12 12
-3 -2 -2 -1 0 1 1 2 2 3 4 5 6 8 10 10 10 11 11 12 13 14 14 14 15 15 16 16 16 15 15 15 14 14 13 14 14 13 13 13 13 13 13 13
-4 -3 -2 -0 1 1 2 3 3 4 4 4 5 7 9 8 9 10 12 12 13 13 14 14 15 16 16 16 16 16 15 15 15 15 14 13 13 14 13 13 13 13 13 13
-4 -3 -3 -1 0 2 4 1 2 4 4 4 5 6 5 7 7 9 11 11 12 13 14 14 15 16 16 16 17 16 16 15 15 15 14 14 13 13 13 13 13 13 13 13
-4 -5 -3 -1 1 2 2 1 1 2 4 2 2 3 6 7 8 10 10 11 12 13 13 14 15 16 16 17 17 17 17 16 16 15 14 14 13 13 13 14 14 14 13 14
-4 -4 -5 -2 -0 2 -1 -1 -0 -0 -0 -1 1 3 6 7 7 7 9 11 11 12 13 14 15 16 17 17 17 17 17 16 16 16 15 15 14 13 13 14 14 14 14 14
-5 -5 -5 -4 -3 -1 -2 -2 -3 -2 -1 0 2 4 6 4 6 7 7 10 11 12 13 14 15 15 16 17 17 17 17 17 17 16 15 14 14 13 13 13 13 14 14 14
-5 -6 -5 -5 -4 -2 -2 -3 -3 -2 -1 1 1 2 2 3 5 5 7 9 11 12 13 14 14 15 16 17 17 17 18 17 17 16 16 15 14 13 13 13 13 14 14 15
-6 -6 -5 -5 -3 -4 -3 -2 -2 -3 -2 -1 1 1 2 3 4 5 6 7 9 11 12 13 14 14 16 16 17 17 17 17 17 16 16 15 14 13 13 13 14 14 15 15
-6 -6 -6 -5 -4 -5 -4 -3 -3 -2 -2 -2 -1 -1 -0 1 2 4 5 6 8 8 10 12 13 13 13 14 15 17 17 17 16 16 15 14 14 13 14 14 14 14 15 15
-6 -6 -6 -5 -5 -5 -5 -4 -4 -2 -3 -2 -2 -1 -1 -0 1 2 4 5 6 8 8 9 12 11 11 11 12 14 15 16 16 16 16 15 14 14 14 14 14 14 15 15
-6 -7 -7 -6 -6 -6 -5 -5 -4 -3 -3 -2 -2 -1 -2 -1 0 1 2 4 5 7 9 9 9 11 10 10 11 11 12 14 15 16 16 15 15 15 14 14 14 14 14 14
Height
3121 3125 3123 3131 3135 3139 3140 3142 3144 3147 3151 3154 3155 3157 3158 3160 3162 3164 3166 3168 3169 3173 3176 3180 3185 3190 3193 3197 3201 3204 3208 3211 3214 3218 3222 3225 3227 3229 3231 3233 3234 3236 3237 3238
3122 3118 3126 3131 3134 3136 3139 3141 3142 3145 3148 3151 3152 3154 3155 3155 3158 3162 3164 3166 3168 3171 3174 3177 3181 3186 3190 3194 3198 3202 3206 3209 3212 3216 3220 3223 3226 3228 3230 3232 3234 3235 3237 3238
3118 3121 3124 3127 3129 3131 3133 3137 3140 3142 3145 3147 3149 3149 3151 3154 3154 3157 3160 3164 3166 3169 3172 3174 3177 3181 3186 3190 3195 3199 3204 3208 3210 3214 3217 3221 3223 3226 3229 3231 3233 3235 3237 3238
3115 3118 3119 3122 3123 3127 3129 3134 3138 3140 3142 3140 3144 3140 3143 3148 3150 3151 3155 3159 3163 3167 3170 3172 3174 3178 3183 3187 3192 3196 3200 3205 3208 3212 3215 3218 3222 3225 3228 3231 3233 3234 3236 3237
3110 3112 3115 3117 3119 3124 3126 3132 3134 3137 3138 3139 3135 3139 3134 3140 3144 3147 3150 3153 3157 3161 3166 3169 3171 3175 3180 3184 3188 3192 3196 3200 3205 3209 3212 3216 3219 3223 3226 3228 3230 3233 3235 3236
3106 3109 3111 3113 3117 3118 3123 3128 3130 3133 3135 3130 3130 3134 3128 3132 3138 3143 3147 3149 3153 3156 3160 3164 3168 3171 3174 3179 3183 3187 3191 3196 3200 3205 3209 3213 3217 3220 3224 3227 3230 3231 3234 3235
3102 3102 3106 3109 3112 3116 3119 3123 3122 3124 3122 3114 3124 3127 3126 3128 3132 3138 3143 3145 3148 3152 3155 3159 3162 3165 3168 3173 3178 3182 3186 3191 3195 3200 3204 3209 3214 3218 3221 3224 3227 3230 3232 3235
3096 3096 3099 3103 3105 3109 3111 3114 3109 3107 3104 3110 3117 3109 3117 3128 3129 3132 3139 3143 3145 3146 3149 3152 3156 3160 3164 3168 3172 3176 3181 3187 3190 3194 3199 3205 3210 3214 3217 3221 3225 3228 3231 3233
3094 3093 3093 3095 3101 3105 3105 3106 3109 3105 3102 3101 3101 3112 3116 3120 3125 3130 3133 3137 3140 3143 3145 3147 3150 3154 3158 3163 3167 3171 3176 3182 3185 3190 3194 3199 3205 3209 3213 3218 3222 3225 3228 3230
3094 3093 3091 3093 3095 3097 3098 3104 3106 3104 3100 3096 3097 3098 3105 3113 3118 3123 3127 3132 3135 3140 3141 3142 3143 3148 3153 3157 3162 3166 3170 3176 3181 3185 3190 3194 3200 3205 3209 3213 3217 3221 3224 3226
3093 3093 3089 3089 3089 3091 3095 3096 3097 3098 3099 3093 3096 3094 3100 3106 3111 3116 3122 3126 3131 3135 3137 3137 3139 3143 3148 3153 3156 3161 3165 3169 3173 3178 3184 3189 3194 3200 3205 3208 3213 3217 3220 3223
3090 3088 3087 3086 3084 3084 3084 3086 3091 3089 3091 3094 3093 3094 3097 3102 3107 3112 3117 3122 3126 3129 3132 3133 3135 3138 3142 3146 3151 3155 3159 3163 3167 3173 3178 3184 3189 3194 3198 3203 3208 3212 3216 3220
3086 3084 3084 3083 3085 3083 3083 3085 3085 3086 3088 3084 3089 3094 3096 3101 3104 3109 3114 3116 3116 3120 3124 3128 3130 3133 3136 3140 3145 3149 3153 3157 3162 3167 3172 3178 3183 3187 3192 3199 3204 3208 3212 3216
3081 3081 3081 3073 3078 3079 3081 3082 3082 3083 3082 3084 3084 3089 3092 3098 3103 3103 3104 3106 3109 3113 3117 3121 3125 3128 3131 3136 3140 3145 3149 3152 3157 3161 3166 3171 3177 3182 3188 3194 3199 3203 3208 3211
3080 3078 3077 3076 3078 3078 3078 3078 3078 3080 3082 3079 3085 3087 3090 3094 3095 3093 3097 3101 3104 3108 3110 3113 3118 3122 3125 3130 3135 3140 3145 3148 3151 3155 3160 3165 3172 3177 3183 3188 3193 3198 3202 3206
3076 3075 3075 3073 3072 3073 3071 3072 3073 3074 3077 3079 3082 3080 3086 3086 3088 3090 3090 3094 3098 3101 3106 3109 3113 3117 3121 3124 3128 3133 3139 3143 3146 3151 3154 3160 3165 3171 3176 3181 3186 3191 3195 3200
3072 3072 3072 3068 3068 3069 3066 3062 3065 3068 3071 3074 3076 3081 3085 3082 3088 3084 3084 3088 3093 3097 3101 3104 3107 3111 3116 3120 3121 3125 3132 3137 3140 3145 3150 3154 3159 3164 3170 3175 3180 3184 3189 3194
3069 3069 3069 3066 3065 3060 3057 3055 3057 3059 3063 3068 3072 3075 3073 3076 3077 3079 3081 3082 3086 3090 3093 3097 3101 3105 3109 3113 3116 3119 3123 3130 3135 3140 3144 3149 3153 3157 3163 3168 3173 3178 3183 3187
3065 3066 3066 3062 3056 3052 3051 3051 3053 3051 3058 3060 3064 3067 3065 3067 3071 3074 3075 3077 3079 3083 3086 3090 3093 3097 3101 3107 3111 3114 3117 3123 3128 3134 3138 3143 3147 3152 3156 3160 3166 3172 3176 3181
3059 3061 3064 3059 3057 3050 3048 3049 3049 3052 3054 3053 3054 3055 3058 3061 3064 3071 3065 3069 3073 3076 3079 3082 3085 3089 3093 3099 3104 3108 3113 3116 3122 3128 3133 3137 3142 3147 3150 3155 3160 3166 3171 3175
3050 3054 3056 3059 3056 3051 3046 3046 3046 3050 3053 3049 3048 3048 3050 3053 3056 3054 3059 3062 3066 3068 3072 3074 3077 3080 3085 3090 3095 3101 3106 3112 3118 3121 3127 3131 3136 3141 3146 3151 3156 3160 3164 3168
3046 3049 3051 3054 3052 3048 3043 3044 3047 3044 3043 3043 3043 3044 3044 3046 3047 3051 3053 3055 3057 3061 3064 3067 3070 3072 3077 3081 3087 3092 3099 3105 3110 3114 3120 3126 3131 3136 3140 3145 3149 3153 3158 3162
3047 3047 3046 3046 3043 3039 3036 3039 3039 3039 3038 3039 3039 3039 3039 3040 3041 3044 3047 3049 3050 3053 3055 3059 3061 3062 3065 3070 3076 3083 3089 3096 3102 3107 3114 3120 3126 3130 3135 3139 3143 3148 3153 3157
3043 3041 3039 3040 3038 3034 3033 3033 3033 3032 3032 3033 3034 3034 3034 3036 3037 3039 3043 3046 3047 3048 3048 3050 3052 3052 3055 3059 3065 3071 3080 3087 3094 3100 3107 3113 3119 3124 3129 3134 3138 3143 3147 3151
3043 3040 3035 3033 3032 3030 3027 3026 3026 3026 3025 3026 3029 3030 3030 3032 3034 3034 3037 3041 3042 3044 3045 3045 3046 3047 3049 3052 3056 3063 3070 3078 3087 3093 3101 3109 3115 3120 3124 3129 3134 3138 3142 3146
3042 3037 3033 3028 3027 3025 3023 3022 3021 3019 3019 3020 3024 3027 3028 3029 3030 3030 3033 3036 3037 3039 3039 3040 3041 3042 3045 3049 3050 3056 3062 3069 3078 3085 3095 3102 3107 3112 3117 3122 3127 3132 3136 3139
Wind_Speed
25 27 33 25 24 21 14 17 23 22 16 23 23 21 14 17 14 10 11 16 15 23 29 30 29 32 30 27 25 24 23 25 24 22 19 17 14 12 11 10 9 7 4 3
19 31 24 20 21 22 19 16 19 17 24 19 22 23 20 21 19 12 13 17 15 22 29 32 32 32 33 29 26 24 23 25 25 23 20 19 17 15 14 12 10 8 5 4
22 12 24 23 23 22 24 22 18 21 20 20 20 23 23 22 21 19 17 18 19 17 25 31 32 34 34 32 28 25 24 24 26 25 24 22 21 19 16 14 11 10 8 6
26 25 10 26 26 23 24 23 21 18 16 24 26 23 29 27 24 24 22 24 22 20 17 25 31 32 33 33 31 29 27 26 26 27 26 25 22 19 17 15 13 11 9 7
22 20 27 19 20 26 26 16 21 23 22 21 20 24 24 28 28 27 24 28 25 23 22 21 23 28 31 33 34 31 30 30 28 28 28 26 25 22 19 19 16 13 11 9
20 21 18 26 22 17 19 17 18 18 24 25 33 25 27 27 29 27 26 27 25 23 22 23 22 23 32 34 36 35 34 31 32 31 30 29 27 25 23 20 17 15 13 11
18 22 21 16 22 22 19 23 16 13 19 18 34 35 30 20 26 26 26 26 26 23 22 21 27 26 26 32 35 37 36 35 33 34 33 32 30 28 25 23 20 18 16 13
16 19 25 23 25 23 29 26 23 18 14 18 32 26 42 32 12 21 25 23 23 20 21 23 25 29 27 28 32 36 36 36 36 35 34 34 33 31 28 26 23 21 19 16
9 21 15 23 20 27 22 37 30 28 14 16 28 34 24 29 35 19 17 21 25 23 19 22 24 28 29 29 30 32 34 35 37 36 35 36 36 34 32 28 25 24 22 19
7 11 11 14 29 29 28 23 30 32 20 19 18 25 33 32 27 32 29 22 20 20 21 23 24 27 30 29 29 30 30 34 37 37 37 35 37 36 33 31 29 27 24 22
7 10 10 13 20 25 28 29 25 30 30 14 15 18 22 26 24 30 22 25 25 24 22 21 19 23 28 30 32 33 32 32 36 38 39 38 38 37 35 34 31 29 27 26
9 8 18 19 11 19 20 24 37 29 33 34 29 24 8 12 24 16 21 24 25 24 22 19 16 19 28 32 33 33 33 35 33 33 35 36 36 38 39 36 34 32 30 29
6 10 14 19 22 17 17 20 22 30 34 35 24 31 14 9 12 12 12 12 14 27 26 24 25 20 31 31 32 32 32 31 33 34 34 35 37 39 39 36 34 34 32 30
9 14 16 20 9 3 10 14 13 24 31 28 30 19 29 24 18 17 22 20 15 20 31 30 29 23 19 33 32 31 31 31 29 33 35 36 35 36 36 35 35 35 34 33
12 17 16 20 19 16 17 19 19 20 25 33 32 30 23 16 13 20 26 22 18 17 16 18 25 24 22 26 34 34 30 31 31 31 32 36 35 34 34 36 36 36 36 34
16 18 14 19 19 19 22 22 23 25 25 25 23 24 22 25 28 22 25 22 21 20 19 20 22 20 18 25 33 41 36 32 30 32 33 31 34 35 35 36 37 38 37 35
15 12 14 17 14 15 22 29 29 28 28 26 29 27 21 24 22 31 31 25 23 27 25 21 28 28 23 20 23 38 43 37 31 28 32 33 32 35 37 36 36 37 38 36
20 16 15 16 11 16 14 9 12 21 29 28 23 24 22 28 25 30 38 36 30 26 29 24 27 32 29 25 22 30 41 45 38 33 30 26 28 32 35 37 36 36 37 37
23 19 15 18 16 19 10 14 10 7 17 18 18 20 31 31 33 34 40 39 36 29 26 25 26 31 34 31 27 24 35 40 42 40 32 27 27 28 32 36 36 35 37 36
25 24 20 13 16 14 8 13 14 18 12 19 22 26 35 30 29 22 34 36 33 35 32 28 31 32 41 39 33 32 28 41 36 38 35 32 27 26 29 32 33 32 33 32
25 27 27 25 19 18 18 18 19 12 13 22 27 30 31 28 31 31 29 32 33 32 33 32 33 37 42 41 40 37 34 35 32 34 40 40 34 27 28 29 30 31 33 32
15 17 17 22 15 20 24 20 13 13 19 19 25 29 31 31 32 27 30 29 31 33 29 28 29 30 41 46 44 42 39 35 40 36 38 42 37 31 29 31 31 33 32 32
5 12 15 15 18 16 22 19 16 21 21 21 26 26 28 30 32 29 29 29 28 29 33 28 30 27 35 44 46 48 46 43 42 38 36 38 38 37 35 34 33 31 31 31
5 7 22 20 14 22 31 28 25 27 29 22 25 23 22 24 25 26 27 23 21 20 26 28 26 25 28 35 39 48 47 48 41 38 36 40 38 34 34 31 32 34 34 32
15 20 12 8 17 16 14 11 18 22 22 20 27 26 21 20 23 24 26 25 23 21 21 22 24 26 28 31 37 43 44 46 45 40 40 44 37 35 34 34 34 34 33 29
13 22 21 15 11 13 11 13 15 21 19 21 29 24 20 19 22 22 24 25 23 25 24 24 26 28 30 33 35 37 40 47 51 49 48 46 42 40 39 38 37 37 36 35
Wind_Direction
196 201 210 211 212 209 219 223 220 218 213 212 215 216 219 207 207 220 230 206 201 197 193 193 198 200 199 196 200 198 197 199 201 195 194 192 191 193 202 209 206 215 208 185
200 216 215 213 218 221 224 221 218 212 213 215 219 225 222 225 216 232 223 207 200 196 199 196 199 202 204 203 202 204 201 203 202 200 196 194 197 199 205 206 206 220 215 199
214 229 220 220 217 219 222 221 216 218 224 216 223 230 221 224 223 216 217 215 209 196 203 205 203 205 206 208 207 208 209 209 205 202 202 200 202 201 200 202 210 219 212 195
233 222 231 219 222 221 228 225 221 223 223 224 217 234 221 216 219 220 224 221 212 215 211 215 211 212 212 211 211 210 212 214 212 208 207 206 209 209 207 205 208 215 212 201
224 221 223 217 225 223 229 224 228 230 234 238 205 230 230 215 219 218 223 221 222 225 227 225 220 218 217 216 216 213 213 216 215 214 212 211 212 213 210 206 207 210 218 211
230 235 227 230 232 222 220 217 228 229 229 237 226 218 229 209 215 222 223 221 222 219 221 220 223 219 218 218 218 218 216 215 218 216 216 213 214 214 213 211 212 214 220 222
234 224 226 218 216 218 207 203 213 210 217 232 224 229 226 221 217 217 219 219 225 227 222 227 222 219 219 221 221 220 219 217 218 218 218 216 214 213 214 214 214 216 218 221
228 222 218 219 215 210 213 209 214 210 211 223 224 226 227 223 217 218 212 226 221 225 225 229 226 224 225 226 223 222 224 219 220 220 218 216 214 214 213 215 217 218 217 217
249 238 208 213 213 215 212 219 220 249 250 259 218 225 234 225 226 213 203 211 218 225 234 231 225 224 224 225 226 225 224 225 223 223 220 218 214 213 214 214 216 220 220 221
250 263 228 219 216 219 221 225 220 231 242 240 230 226 217 227 217 219 224 220 212 222 232 227 225 225 223 222 224 226 225 225 227 226 224 220 216 214 213 214 215 220 220 222
259 242 219 228 219 220 221 227 223 227 224 235 239 217 225 228 224 218 214 217 221 227 236 230 216 224 222 220 219 221 223 223 222 224 225 223 218 216 215 216 216 220 221 222
245 245 250 236 223 214 217 228 222 226 221 234 257 228 191 211 211 200 217 228 231 234 233 226 214 219 221 220 219 220 223 224 222 220 222 221 220 218 218 216 216 220 223 225
237 239 253 240 239 240 228 224 228 232 233 232 223 230 200 192 168 187 202 212 221 219 220 221 235 244 220 219 219 218 217 221 224 220 219 219 217 217 218 218 219 221 224 226
244 240 244 259 315 264 229 226 228 227 231 228 233 232 229 226 228 235 231 233 210 201 214 231 234 231 218 219 216 215 213 215 222 226 222 220 219 220 220 219 221 224 225 227
243 252 248 254 259 263 260 250 245 235 233 238 236 227 224 204 226 243 231 239 241 229 208 216 214 223 224 218 216 216 211 212 215 225 230 228 224 222 221 222 222 224 227 228
248 251 253 261 258 256 264 254 248 242 235 237 240 247 228 236 242 249 246 240 236 222 209 199 195 201 209 221 216 214 213 213 215 224 230 232 228 226 224 223 223 224 226 229
243 241 248 260 248 258 260 254 246 242 235 234 231 234 239 240 235 253 249 245 233 229 221 221 210 207 211 210 215 214 211 208 208 217 223 229 231 227 226 226 226 227 227 227
251 244 241 256 266 242 233 237 235 251 232 231 232 225 244 230 224 239 246 251 256 248 239 233 224 218 217 217 217 211 213 211 211 211 215 224 228 226 225 227 227 228 229 229
234 242 240 241 247 249 267 259 237 200 202 215 231 237 231 234 232 234 243 249 251 242 235 232 230 226 225 221 218 218 210 209 215 211 215 224 228 226 224 226 227 229 230 228
227 227 232 252 249 252 233 228 214 200 202 204 214 223 228 231 234 225 240 242 249 253 243 234 227 227 228 229 225 222 220 206 209 213 216 222 225 230 226 226 226 227 228 228
207 217 222 233 243 248 267 276 278 221 207 229 226 221 222 222 214 222 235 237 245 251 249 239 231 231 231 231 229 230 227 214 205 209 213 214 218 224 229 224 221 221 221 222
192 193 210 226 245 249 251 268 270 260 223 234 228 230 227 216 216 220 231 234 241 248 250 249 244 237 225 229 227 229 226 214 205 208 214 214 217 219 219 220 217 216 217 221
210 218 221 218 229 241 250 252 265 283 276 236 228 225 223 217 213 211 226 230 238 244 250 249 250 244 216 220 224 225 223 209 205 207 212 214 213 217 214 217 208 205 208 214
19 333 231 243 251 255 256 262 267 268 272 246 224 216 206 203 197 199 210 211 209 227 243 251 249 224 212 216 221 221 217 203 197 202 203 203 197 202 200 202 205 207 211 217
349 6 342 275 249 296 244 240 245 247 252 238 222 209 198 195 196 194 201 206 200 201 217 234 232 210 204 200 198 196 188 189 195 196 201 198 206 211 211 207 210 210 210 212
18 5 349 309 304 307 281 274 271 248 256 239 220 210 198 194 196 189 192 198 193 193 185 204 218 206 202 202 192 190 187 187 190 192 197 204 210 211 212 212 213 214 219 226